Overview Statistics Trail Chart Weather Telemetry Raw packets
 

This is the latest recevied weather packets stored in our database for station/object SV9TNF-55. If no packets are shown the sender has not sent any weather packets the latest 10 day(s).

<< 53 54 55 56 57 58 >>
Time Temp. Humidity Pressure Rain* Wind** Luminosity Snow
1787839485 25° C 51% 1013.9 hPa 0 mm 2.24 m/s, 270° - -
1787838884 25° C 50% 1013.8 hPa 0 mm 1.79 m/s, 337° - -
1787838284 25° C 50% 1013.8 hPa 0 mm 2.24 m/s, 315° - -
1787837684 25° C 51% 1013.9 hPa 0 mm 1.79 m/s, 315° - -
1787837084 25.56° C 51% 1013.9 hPa 0 mm 1.79 m/s, 337° - -
1787836485 25° C 52% 1014 hPa 0 mm 1.79 m/s, 292° - -
1787835884 25° C 52% 1014 hPa 0 mm 2.68 m/s, 270° - -
1787835283 25° C 54% 1014.1 hPa 0 mm 3.58 m/s, 292° - -
1787834683 25° C 52% 1014.5 hPa 0 mm 3.58 m/s, 292° - -
1787834083 25° C 51% 1014.7 hPa 0 mm 4.02 m/s, 270° - -
1787833483 25° C 51% 1014.6 hPa 0 mm 4.02 m/s, 292° - -
1787832883 25° C 53% 1014.8 hPa 0 mm 4.02 m/s, 292° - -
1787832283 25° C 53% 1014.5 hPa 0 mm 4.02 m/s, 292° - -
1787831683 25° C 47% 1014.6 hPa 0 mm 3.58 m/s, 315° - -
1787831083 25.56° C 46% 1014.6 hPa 0 mm 4.92 m/s, 292° - -
1787830483 26.11° C 44% 1014.3 hPa 0 mm 4.02 m/s, 315° - -
1787829883 25.56° C 46% 1014.1 hPa 0 mm 4.92 m/s, 292° - -
1787829283 25.56° C 45% 1014.8 hPa 0 mm 4.02 m/s, 292° - -
1787828682 25.56° C 47% 1014.7 hPa 0 mm 4.02 m/s, 337° - -
1787828083 25.56° C 50% 1014.7 hPa 0 mm 3.13 m/s, 315° - -
1787827483 25.56° C 52% 1014.7 hPa 0 mm 3.58 m/s, 315° - -
1787826882 25.56° C 55% 1014.7 hPa 0 mm 2.68 m/s, 315° - -
1787826282 25.56° C 53% 1014.5 hPa 0 mm 2.68 m/s, 315° - -
1787825682 25.56° C 49% 1014.7 hPa 0 mm 3.58 m/s, 315° - -
1787825082 25.56° C 49% 1014.7 hPa 0 mm 3.58 m/s, 315° - -

* Rain latest hour (hover to see other rain measurements)
** Current wind speed in m/s (hover to see current wind gust speed)